Location: Sungai Liu
(2.3667°N, 113.8667°E)
Time: 13:38:06
(UTC+00:00)

In-Cosmos 22 Rocket - Pass Details

Date: 20 May 2022
Orbit: 789 x 888 km, 81.2° (Epoch: 06 July)

Event Time Altitude Azimuth Distance (km) Brightness Sun altitude
Exits shadow 20:33:47 40° 190° (S) 1,238 4.8 -24.2°
Maximum altitude 20:35:57 85° 274° (W) 861 4.1 -23.7°
Drops below altitude 10° 20:41:39 10° 3° (N) 2,507 7.0 -22.4°
Sets 20:44:06 0° 4° (N) 3,454 7.7 -21.8°
